This is the latest recevied weather packets stored in our database for station/object WC4PEM-11. If no packets are shown the sender has not sent any weather packets the latest 10 day(s).
| Time | Temp. | Humidity | Pressure | Rain* | Wind** | Luminosity | Snow |
|---|---|---|---|---|---|---|---|
| 1787434708 | 33.33° C | 61% | 1015 hPa | 0 mm | - | - | - |
| 1787434408 | 33.33° C | 61% | 1015 hPa | 0 mm | - | - | - |
| 1787434108 | 33.33° C | 60% | 1015 hPa | 0 mm | - | - | - |
| 1787433808 | 33.33° C | 59% | 1014.9 hPa | 0 mm | - | - | - |
| 1787433508 | 33.33° C | 59% | 1015.1 hPa | 0 mm | - | - | - |
| 1787433208 | 33.33° C | 59% | 1015.1 hPa | 0 mm | - | - | - |
| 1787432908 | 33.89° C | 59% | 1015.1 hPa | 0 mm | - | - | - |
| 1787432608 | 33.89° C | 59% | 1014.9 hPa | 0 mm | - | - | - |
| 1787432388 | 33.89° C | 59% | 1014.9 hPa | 0 mm | - | - | - |
| 1787432308 | 33.89° C | 59% | 1014.9 hPa | 0 mm | - | - | - |
| 1787432008 | 33.33° C | 59% | 1015 hPa | 0 mm | - | - | - |
| 1787431708 | 33.33° C | 60% | 1014.9 hPa | 0 mm | - | - | - |
| 1787431408 | 33.33° C | 58% | 1014.6 hPa | 0 mm | - | - | - |
| 1787431108 | 33.33° C | 60% | 1014.8 hPa | 0 mm | - | - | - |
| 1787430808 | 33.33° C | 60% | 1014.8 hPa | 0 mm | - | - | - |
| 1787430508 | 32.78° C | 64% | 1014.9 hPa | 0 mm | - | - | - |
| 1787430362 | 32.78° C | 62% | 1015.1 hPa | 0 mm | - | - | - |
| 1787430208 | 32.78° C | 62% | 1015.1 hPa | 0 mm | - | - | - |
| 1787430025 | 32.78° C | 62% | 1015.1 hPa | 0 mm | - | - | - |
| 1787429950 | 32.78° C | 62% | 1015.1 hPa | 0 mm | - | - | - |
| 1787429908 | 32.78° C | 62% | 1015.1 hPa | 0 mm | - | - | - |
| 1787429608 | 33.33° C | 60% | 1014.9 hPa | 0 mm | - | - | - |
| 1787429308 | 33.33° C | 62% | 1015.1 hPa | 0 mm | - | - | - |
| 1787429008 | 32.78° C | 65% | 1015.1 hPa | 0 mm | - | - | - |
| 1787428708 | 32.78° C | 66% | 1015.1 hPa | 0 mm | - | - | - |
* Rain latest hour (hover to see other rain measurements)
** Current wind speed in m/s (hover to see current wind gust speed)